TimeCST,TemperatureF,Dew PointF,Humidity,Sea Level PressureIn,VisibilityMPH,Wind Direction,Wind SpeedMPH,Gust SpeedMPH,PrecipitationIn,Events,Conditions,WindDirDegrees,DateUTC
12:42 AM,55.4,53.6,94,30.28,6.0,Calm,Calm,-,N/A,,Mostly Cloudy,0,2012-10-30 06:42:00
1:43 AM,53.6,51.8,94,30.28,6.0,Calm,Calm,-,N/A,,Mostly Cloudy,0,2012-10-30 07:43:00
2:45 AM,55,52,85,29.95,5,WSW,4.5,,,,Partly Cloudy,240,2012-10-30 08:45:00
2:46 AM,53.6,51.8,94,29.90,6.0,Calm,Calm,-,N/A,,Mostly Cloudy,0,2012-10-30 08:46:00
3:44 AM,51.8,50.0,94,30.26,6.0,Calm,Calm,-,N/A,,Mostly Cloudy,0,2012-10-30 09:44:00
4:43 AM,51.8,51.8,100,30.26,6.0,Calm,Calm,-,N/A,,Overcast,0,2012-10-30 10:43:00
5:43 AM,51.8,51.8,100,29.91,6.0,Calm,Calm,-,N/A,,Overcast,0,2012-10-30 11:43:00
5:45 AM,54,51,86,30.00,5,SSW,6.7,,,,Partly Cloudy,210,2012-10-30 11:45:00
6:43 AM,51.8,51.8,100,30.27,6.0,Calm,Calm,-,N/A,,Overcast,0,2012-10-30 12:43:00
7:46 AM,53.6,51.8,94,30.29,8.0,Calm,Calm,-,N/A,,Mostly Cloudy,0,2012-10-30 13:46:00
8:42 AM,57.2,53.6,88,29.94,8.0,Calm,Calm,-,N/A,,Mostly Cloudy,0,2012-10-30 14:42:00
8:55 AM,60,51,64,30.06,7,SSE,2.2,,,,,160,2012-10-30 14:55:00
9:29 AM,62.6,53.6,72,30.30,8.0,Calm,Calm,-,N/A,,Mostly Cloudy,0,2012-10-30 15:29:00
9:51 AM,64.4,53.6,68,30.30,8.0,Calm,Calm,-,N/A,,Mostly Cloudy,0,2012-10-30 15:51:00
10:53 AM,66.2,51.8,60,30.30,8.0,Calm,Calm,-,N/A,,Clear,0,2012-10-30 16:53:00
11:48 AM,71.6,51.8,50,29.88,8.0,East,3.5,-,N/A,,Clear,100,2012-10-30 17:48:00
12:00 PM,,,,,9,ENE,2.2,,,,,60,2012-10-30 18:00:00
12:50 PM,75.2,48.2,38,30.23,8.0,North,8.1,-,N/A,,Scattered Clouds,350,2012-10-30 18:50:00
1:47 PM,75.2,44.6,34,30.20,8.0,North,9.2,-,N/A,,Scattered Clouds,360,2012-10-30 19:47:00
2:50 PM,73,51,35,29.83,7,West,4.5,,,,Partly Cloudy,270,2012-10-30 20:50:00
2:51 PM,77.0,50.0,39,29.80,8.0,North,6.9,-,N/A,,Scattered Clouds,350,2012-10-30 20:51:00
3:51 PM,-9999,-9999,N/A,29.80,-9999.0,North,-9999.0,-,N/A,,Unknown,0,2012-10-30 21:51:00
4:43 PM,77.0,44.6,32,30.14,8.0,Calm,Calm,-,N/A,,Scattered Clouds,0,2012-10-30 22:43:00
5:45 PM,68.0,55.4,64,29.81,8.0,SSW,10.4,-,N/A,,Mostly Cloudy,200,2012-10-30 23:45:00
5:50 PM,69,57,56,29.77,7,South,4.5,,,,Partly Cloudy,170,2012-10-30 23:50:00
6:41 PM,64.4,55.4,73,30.18,7.0,SSW,9.2,-,N/A,,Mostly Cloudy,200,2012-10-31 00:41:00
7:51 PM,60.8,55.4,82,30.21,7.0,Calm,Calm,-,N/A,,Scattered Clouds,0,2012-10-31 01:51:00
8:50 PM,60,57,88,29.84,5,South,4.5,,,,Partly Cloudy,190,2012-10-31 02:50:00
8:51 PM,59.0,55.4,88,29.90,7.0,SW,4.6,-,N/A,,Clear,230,2012-10-31 02:51:00
9:45 PM,60.8,57.2,88,30.25,7.0,SW,6.9,-,N/A,,Partly Cloudy,230,2012-10-31 03:45:00
10:43 PM,59.0,55.4,88,30.26,7.0,SSW,4.6,-,N/A,,Scattered Clouds,200,2012-10-31 04:43:00
11:47 PM,57.2,51.8,82,29.86,7.0,WSW,6.9,-,N/A,,Scattered Clouds,240,2012-10-31 05:47:00
11:50 PM,57,56,94,29.86,5,WSW,4.5,,,,Partly Cloudy,240,2012-10-31 05:50:00